Location: Kerb�bon
(47.7970°N, 3.3487°W)
Time: 13:02:02
(UTC+00:00)

RESURS DK-1 - Pass Details

Date: 12 May 2021
Orbit: 553 x 564 km, 69.9° (Epoch: 18 June)

Event Time Altitude Azimuth Distance (km) Brightness Sun altitude
Rises 22:54:14 0° 337° (NNW) 2,766 7.4 -21.7°
Reaches altitude 10° 22:56:39 10° 347° (NNW) 1,867 6.2 -21.8°
Maximum altitude 23:00:24 32° 51° (NE) 992 3.7 -22.0°
Enters shadow 23:01:28 28° 81° (E) 1,086 3.7 -22.1°
